Weather History for Cape Girardeau, MO

Change the Weather History Date:

Friday, October 12, 2012

  Actual Average Record
Temperature  
Mean Temperature 57 °F 59 °F  
Max Temperature 62 °F 72 °F 90 °F (1989)
Min Temperature 51 °F 46 °F 29 °F (1987)
Degree Days  
Heating Degree Days 8 7  
Month to date heating degree days 134 72  
Since 1 July heating degree days 180 121  
Cooling Degree Days 0 1  
Month to date cooling degree days 2 19  
Year to date cooling degree days 1766 1441  
Growing Degree Days 6 (Base 50)    
Moisture  
Dew Point 51 °F    
Average Humidity 86    
Maximum Humidity 100    
Minimum Humidity 72    
Precipitation  
Precipitation 0.12 in 0.12 in 0.62 in (1986)
Month to date precipitation 1.21 1.39  
Year to date precipitation 22.59 35.72  
Sea Level Pressure  
Sea Level Pressure 30.24 in    
Wind  
Wind Speed 4 mph (NE)    
Max Wind Speed 12 mph    
Max Gust Speed 15 mph    
Visibility 7 miles    
Events Rain , Thunderstorm    
T = Trace of Precipitation, MM = Missing Value Source: NWS Daily Summary

Daily Weather History Graph

Daily Weather History Graph

Search for Another Location

Airport:

Trip Planner

Search our weather history database for the weather conditions in past years. The results will help you decide how hot, cold, wet, or windy it might be!

Date:

Astronomy

Oct. 12, 2012 Rise Set
Actual Time 7:03 AM CDT 6:24 PM CDT
Civil Twilight 6:37 AM CDT 6:50 PM CDT
Nautical Twilight 6:07 AM CDT 7:21 PM CDT
Astronomical Twilight 5:37 AM CDT 7:51 PM CDT
Moon 3:50 AM CDT (10/12) 4:31 PM CDT (10/12)
Length of Visible Light 12h 13m
Length of Day
11h 20m
Waning Crescent, 10% of the Moon is Illuminated
Oct 12
Waning Crescent
Oct 15
New
Oct 21
First Quarter
Oct 29
Full
Nov 6
Last Quarter

Hourly Weather History & Observations

Time (CDT) Temp. Dew Point Humidity Pressure Visibility Wind Dir Wind Speed Gust Speed Precip Events Conditions
12:20 AM 51.8 °F 50.0 °F 94% 30.21 in 4.0 mi WSW 9.2 mph - 0.16 in Rain , Thunderstorm Heavy Thunderstorms and Rain
12:26 AM 51.8 °F 50.0 °F 94% 30.18 in 1.8 mi South 9.2 mph - 0.31 in Rain , Thunderstorm Heavy Thunderstorms and Rain
12:41 AM 51.8 °F 50.0 °F 94% 30.20 in 2.0 mi WSW 4.6 mph - 0.41 in Rain , Thunderstorm Heavy Thunderstorms and Rain
12:47 AM 51.8 °F 50.0 °F 94% 30.20 in 0.8 mi Calm Calm - 0.65 in Rain , Thunderstorm Heavy Thunderstorms and Rain
12:53 AM 52.0 °F 50.0 °F 93% 30.19 in 0.8 mi Calm Calm - 0.70 in Rain , Thunderstorm Heavy Thunderstorms and Rain
12:59 AM 51.8 °F 50.0 °F 94% 30.20 in 2.0 mi North 3.5 mph - N/A Rain , Thunderstorm Heavy Thunderstorms and Rain
1:05 AM 51.8 °F 51.8 °F 100% 30.20 in 3.0 mi NNW 3.5 mph - 0.03 in Rain , Thunderstorm Light Thunderstorms and Rain
1:10 AM 51.8 °F 51.8 °F 100% 30.20 in 5.0 mi NNW 6.9 mph - N/A Rain , Thunderstorm Light Thunderstorms and Rain
1:27 AM 51.8 °F 51.8 °F 100% 30.20 in 2.5 mi Calm Calm - 0.07 in Rain Light Rain
1:29 AM 51.8 °F 51.8 °F 100% 30.20 in 3.0 mi Calm Calm - 0.07 in Rain Rain
1:38 AM 51.8 °F 51.8 °F 100% 30.20 in 6.0 mi NW 3.5 mph - 0.07 in Rain , Thunderstorm Light Rain
1:42 AM 51.8 °F 51.8 °F 100% 30.21 in 6.0 mi NNW 5.8 mph - 0.07 in Rain , Thunderstorm Light Rain
1:50 AM 51.8 °F 51.8 °F 100% 30.20 in 5.0 mi NNW 3.5 mph - 0.07 in Rain Light Rain
1:53 AM 52.0 °F 51.1 °F 97% 30.20 in 4.0 mi Calm Calm - 0.07 in Rain Light Rain
2:04 AM 51.8 °F 51.8 °F 100% 30.20 in 8.0 mi Calm Calm - 0.00 in   Overcast
2:26 AM 53.6 °F 51.8 °F 94% 30.21 in 9.0 mi Calm Calm - 0.00 in Thunderstorm Overcast
3:01 AM 51.8 °F 51.8 °F 100% 30.21 in 3.0 mi Calm Calm - N/A Rain , Thunderstorm Thunderstorms and Rain
3:23 AM 53.6 °F 51.8 °F 94% 30.20 in 9.0 mi Calm Calm - 0.03 in   Overcast
3:53 AM 53.1 °F 51.1 °F 93% 30.21 in 9.0 mi Calm Calm - 0.03 in   Overcast
4:40 AM 53.6 °F 51.8 °F 94% 30.22 in 8.0 mi Calm Calm - N/A   Overcast
4:53 AM 53.6 °F 51.8 °F 94% 30.23 in 8.0 mi Calm Calm - N/A   Overcast
5:53 AM 52.0 °F 50.0 °F 93% 30.22 in 10.0 mi NE 5.8 mph - 0.00 in   Mostly Cloudy
6:33 AM 53.6 °F 51.8 °F 94% 30.24 in 10.0 mi Calm Calm - N/A   Overcast
6:53 AM 54.0 °F 50.0 °F 86% 30.25 in 10.0 mi Calm Calm - N/A   Overcast
7:53 AM 54.0 °F 51.1 °F 90% 30.28 in 10.0 mi Calm Calm - N/A   Overcast
8:02 AM 53.6 °F 51.8 °F 94% 30.28 in 10.0 mi NE 3.5 mph - N/A   Overcast
8:53 AM 55.0 °F 51.1 °F 86% 30.30 in 10.0 mi NE 6.9 mph - N/A   Overcast
9:10 AM 55.4 °F 51.8 °F 88% 30.30 in 10.0 mi NE 5.8 mph - N/A   Overcast
9:53 AM 57.0 °F 51.1 °F 81% 30.31 in 10.0 mi NE 8.1 mph - N/A   Overcast
10:53 AM 57.9 °F 51.1 °F 78% 30.34 in 10.0 mi NE 5.8 mph - N/A   Overcast
11:53 AM 59.0 °F 51.8 °F 77% 30.34 in 10.0 mi ENE 5.8 mph - N/A   Overcast
12:53 PM 60.1 °F 51.1 °F 72% 30.32 in 10.0 mi East 9.2 mph - N/A   Overcast
1:53 PM 61.0 °F 52.0 °F 72% 30.30 in 10.0 mi ENE 9.2 mph - N/A   Mostly Cloudy
2:53 PM 61.0 °F 53.1 °F 75% 30.27 in 10.0 mi ENE 10.4 mph - N/A   Clear
3:53 PM 61.0 °F 52.0 °F 72% 30.26 in 10.0 mi NE 9.2 mph - N/A   Clear
4:53 PM 60.8 °F 51.8 °F 72% 30.27 in 10.0 mi ESE 3.5 mph - N/A   Clear
6:53 PM 57.0 °F 53.1 °F 87% 30.26 in 10.0 mi Calm Calm - N/A   Clear
7:53 PM 54.0 °F 52.0 °F 93% 30.25 in 10.0 mi East 4.6 mph - N/A   Clear
8:53 PM 53.6 °F 51.8 °F 94% 30.25 in 10.0 mi East 4.6 mph - N/A   Clear
9:53 PM 52.0 °F 51.1 °F 97% 30.26 in 4.0 mi Calm Calm - N/A   Clear
10:53 PM 51.1 °F 50.0 °F 96% 30.25 in 3.0 mi Calm Calm - N/A   Clear
11:41 PM 53.6 °F 51.8 °F 94% 30.25 in 6.0 mi Calm Calm - N/A   Mostly Cloudy
11:53 PM 54.0 °F 52.0 °F 93% 30.25 in 9.0 mi Calm Calm - N/A   Overcast